When you browse on this site, cookies collect data to enhance your experience and personalize the content and advertising you see.
Visit our Privacy Policy to learn more. By continuing to use the site, you agree to this use of cookies and data.
EN

Hourly Weather Brussels

Today, 10 August, Monday

Time Temperature Precipitation Wind Pressure Humidity
00:00 +24°C° 0.8 mm 1 mps 757 mmHg 77%
01:00 +24°C° 0.2 mm 1 mps 757 mmHg 78%
02:00 +23°C° 0.2 mm 1 mps 757 mmHg 79%
03:00 +23°C° 0.2 mm 1 mps 757 mmHg 79%
04:00 +23°C° 0 mm 2 mps 757 mmHg 79%
05:00 +24°C° 0 mm 2 mps 757 mmHg 79%
06:00 +24°C° 0 mm 2 mps 757 mmHg 79%
07:00 +26°C° 0 mm 2 mps 757 mmHg 70%
08:00 +28°C° 0 mm 2 mps 757 mmHg 62%
09:00 +30°C° 0 mm 2 mps 757 mmHg 53%
10:00 +31°C° 0 mm 2 mps 757 mmHg 49%
11:00 +34°C° 0 mm 2 mps 757 mmHg 45%
12:00 +35°C° 0 mm 2 mps 757 mmHg 40%
13:00 +34°C° 0 mm 1 mps 757 mmHg 40%
14:00 +34°C° 0 mm 1 mps 757 mmHg 40%
15:00 +34°C° 0 mm 1 mps 757 mmHg 40%
16:00 +33°C° 0 mm 1 mps 756 mmHg 44%
17:00 +34°C° 0 mm 2 mps 756 mmHg 48%
18:00 +32°C° 0 mm 2 mps 756 mmHg 51%
19:00 +30°C° 0.2 mm 2 mps 757 mmHg 56%
20:00 +29°C° 0.2 mm 2 mps 757 mmHg 61%
21:00 +27°C° 0.2 mm 3 mps 757 mmHg 65%
22:00 +26°C° 0.1 mm 2 mps 757 mmHg 68%
23:00 +26°C° 0.1 mm 2 mps 757 mmHg 70%

Tomorrow, 11 August, Tuesday

Time Temperature Precipitation Wind Pressure Humidity
00:00 +25°C° 0.1 mm 2 mps 757 mmHg 73%
01:00 +25°C° 0.3 mm 2 mps 757 mmHg 74%
02:00 +24°C° 0.3 mm 2 mps 757 mmHg 75%
03:00 +24°C° 0.3 mm 1 mps 757 mmHg 76%
04:00 +24°C° 0.2 mm 1 mps 757 mmHg 76%
05:00 +24°C° 0.2 mm 1 mps 757 mmHg 75%
06:00 +25°C° 0.2 mm 1 mps 757 mmHg 74%
07:00 +26°C° 0 mm 1 mps 758 mmHg 68%
08:00 +28°C° 0 mm 2 mps 758 mmHg 61%
09:00 +30°C° 0 mm 2 mps 758 mmHg 54%
10:00 +31°C° 0 mm 2 mps 758 mmHg 49%
11:00 +34°C° 0 mm 2 mps 758 mmHg 45%
12:00 +35°C° 0 mm 2 mps 757 mmHg 40%
13:00 +36°C° 0 mm 2 mps 757 mmHg 38%
14:00 +35°C° 0 mm 1 mps 757 mmHg 37%
15:00 +36°C° 0 mm 1 mps 757 mmHg 35%
16:00 +36°C° 0 mm 2 mps 757 mmHg 39%
17:00 +35°C° 0 mm 2 mps 756 mmHg 42%
18:00 +32°C° 0 mm 2 mps 756 mmHg 46%
19:00 +31°C° 0 mm 2 mps 757 mmHg 50%
20:00 +29°C° 0 mm 3 mps 757 mmHg 53%
21:00 +28°C° 0 mm 3 mps 757 mmHg 57%
22:00 +27°C° 0 mm 2 mps 757 mmHg 60%
23:00 +26°C° 0 mm 2 mps 757 mmHg 63%

Day after tomorrow, 12 August, Wednesday

Time Temperature Precipitation Wind Pressure Humidity
00:00 +26°C° 0 mm 2 mps 757 mmHg 66%
01:00 +25°C° 0 mm 2 mps 757 mmHg 68%
02:00 +25°C° 0 mm 1 mps 757 mmHg 70%
03:00 +24°C° 0 mm 1 mps 757 mmHg 72%
04:00 +25°C° 0 mm 1 mps 756 mmHg 71%
05:00 +25°C° 0 mm 1 mps 756 mmHg 70%
06:00 +26°C° 0 mm 1 mps 756 mmHg 69%
07:00 +28°C° 0 mm 1 mps 756 mmHg 62%
08:00 +30°C° 0 mm 2 mps 756 mmHg 55%
09:00 +32°C° 0 mm 2 mps 757 mmHg 48%
10:00 +34°C° 0 mm 2 mps 756 mmHg 44%
11:00 +35°C° 0 mm 2 mps 756 mmHg 40%
12:00 +36°C° 0 mm 2 mps 756 mmHg 37%
13:00 +37°C° 0 mm 2 mps 756 mmHg 35%
14:00 +37°C° 0 mm 2 mps 755 mmHg 33%
15:00 +38°C° 0 mm 2 mps 755 mmHg 31%
16:00 +37°C° 0 mm 2 mps 755 mmHg 35%
17:00 +36°C° 0 mm 2 mps 754 mmHg 38%
18:00 +35°C° 0 mm 2 mps 754 mmHg 42%
19:00 +33°C° 0.1 mm 3 mps 754 mmHg 47%
20:00 +32°C° 0.1 mm 4 mps 754 mmHg 51%
21:00 +29°C° 0.1 mm 4 mps 754 mmHg 56%
22:00 +28°C° 0.6 mm 4 mps 754 mmHg 62%
23:00 +26°C° 0.6 mm 4 mps 754 mmHg 68%

13 August, Thursday

Time Temperature Precipitation Wind Pressure Humidity
00:00 +25°C° 0.6 mm 3 mps 754 mmHg 74%
01:00 +25°C° 0.2 mm 3 mps 754 mmHg 76%
02:00 +25°C° 0.2 mm 3 mps 753 mmHg 77%
03:00 +24°C° 0.2 mm 2 mps 753 mmHg 79%
04:00 +25°C° 0 mm 3 mps 753 mmHg 78%
05:00 +25°C° 0 mm 3 mps 753 mmHg 77%
06:00 +25°C° 0 mm 3 mps 753 mmHg 75%
07:00 +26°C° 0 mm 3 mps 753 mmHg 70%
08:00 +28°C° 0 mm 4 mps 753 mmHg 65%
09:00 +29°C° 0 mm 4 mps 753 mmHg 60%
10:00 +30°C° 0 mm 4 mps 753 mmHg 57%
11:00 +32°C° 0 mm 5 mps 753 mmHg 54%
12:00 +33°C° 0 mm 5 mps 753 mmHg 51%
13:00 +33°C° 0 mm 5 mps 753 mmHg 50%
14:00 +33°C° 0 mm 5 mps 753 mmHg 48%
15:00 +33°C° 0 mm 5 mps 753 mmHg 47%
16:00 +32°C° 0 mm 4 mps 753 mmHg 49%
17:00 +30°C° 0 mm 4 mps 753 mmHg 51%
18:00 +29°C° 0 mm 3 mps 753 mmHg 52%
19:00 +28°C° 0 mm 3 mps 753 mmHg 55%
20:00 +27°C° 0 mm 3 mps 753 mmHg 57%
21:00 +25°C° 0 mm 3 mps 753 mmHg 60%
22:00 +25°C° 0 mm 3 mps 754 mmHg 62%
23:00 +24°C° 0 mm 3 mps 754 mmHg 63%

14 August, Friday

Time Temperature Precipitation Wind Pressure Humidity
00:00 +22°C° 0 mm 3 mps 754 mmHg 65%
01:00 +22°C° 0 mm 3 mps 754 mmHg 68%
02:00 +21°C° 0 mm 4 mps 754 mmHg 70%
03:00 +21°C° 0 mm 5 mps 754 mmHg 73%
04:00 +21°C° 0 mm 5 mps 754 mmHg 74%
05:00 +21°C° 0 mm 5 mps 754 mmHg 75%
06:00 +22°C° 0 mm 6 mps 754 mmHg 76%
07:00 +22°C° 0 mm 6 mps 755 mmHg 73%
08:00 +23°C° 0 mm 6 mps 755 mmHg 70%
09:00 +23°C° 0 mm 6 mps 756 mmHg 67%
10:00 +24°C° 0 mm 6 mps 756 mmHg 63%
11:00 +25°C° 0 mm 5 mps 756 mmHg 60%
12:00 +26°C° 0 mm 5 mps 756 mmHg 56%
13:00 +26°C° 0 mm 4 mps 756 mmHg 52%
14:00 +27°C° 0 mm 4 mps 756 mmHg 47%
15:00 +28°C° 0 mm 4 mps 756 mmHg 42%
16:00 +27°C° 0 mm 3 mps 757 mmHg 46%
17:00 +26°C° 0 mm 3 mps 757 mmHg 49%
18:00 +26°C° 0 mm 2 mps 757 mmHg 52%
19:00 +24°C° 0 mm 2 mps 757 mmHg 57%
20:00 +23°C° 0 mm 1 mps 758 mmHg 62%
21:00 +21°C° 0 mm 1 mps 758 mmHg 66%
22:00 +20°C° 0 mm 1 mps 758 mmHg 69%
23:00 +20°C° 0 mm 1 mps 758 mmHg 72%

15 August, Saturday

Time Temperature Precipitation Wind Pressure Humidity
00:00 +19°C° 0 mm 1 mps 758 mmHg 75%
01:00 +19°C° 0 mm 1 mps 758 mmHg 76%
02:00 +19°C° 0 mm 1 mps 758 mmHg 77%
03:00 +19°C° 0 mm 1 mps 758 mmHg 78%
04:00 +18°C° 0 mm 2 mps 758 mmHg 76%
05:00 +19°C° 0 mm 2 mps 758 mmHg 74%
06:00 +19°C° 0 mm 2 mps 758 mmHg 73%
07:00 +21°C° 0 mm 2 mps 759 mmHg 65%
08:00 +24°C° 0 mm 2 mps 759 mmHg 56%
09:00 +26°C° 0 mm 2 mps 759 mmHg 48%
10:00 +27°C° 0 mm 2 mps 759 mmHg 44%
11:00 +28°C° 0 mm 2 mps 758 mmHg 40%
12:00 +29°C° 0 mm 2 mps 758 mmHg 35%
13:00 +30°C° 0 mm 2 mps 758 mmHg 34%
14:00 +30°C° 0 mm 1 mps 758 mmHg 33%
15:00 +30°C° 0 mm 1 mps 758 mmHg 32%
16:00 +29°C° 0 mm 1 mps 758 mmHg 36%
17:00 +28°C° 0 mm 1 mps 757 mmHg 40%
18:00 +28°C° 0 mm 1 mps 757 mmHg 44%
19:00 +26°C° 0 mm 2 mps 757 mmHg 50%
20:00 +25°C° 0 mm 3 mps 758 mmHg 56%
21:00 +22°C° 0 mm 3 mps 758 mmHg 62%
22:00 +22°C° 0 mm 3 mps 758 mmHg 66%
23:00 +21°C° 0 mm 3 mps 757 mmHg 70%
Show more